240P/NEAT (2018)

Japanese version
Home page
Updated on August 29, 2017

---------------------------------------------------------------------

* Profile

* Pictures

* Orbital Elements

Epoch 2018 May 2.0 TT = JDT 2458240.5
T 2018 May 15.88027 TT                                  MPCW
q   2.1337771            (2000.0)            P               Q
n   0.12934581     Peri.  352.09907     +0.37930947     -0.84132753
a   3.8722894      Node    74.92641     +0.86923356     +0.18137395
e   0.4489624      Incl.   23.50377     +0.31710778     +0.50918707
P   7.62
From 1630 observations 2002 Oct. 5-2017 July 8, mean residual 0".7.
     Nongravitational parameters A1 = +1.93, A2 = +0.1287.

* Finding Charts

* Magnitudes Graph

        m1 = 0.0 + 5 log d + 30 log r

        * Gray curve is:  m1 = 7.8 + 5 log d + 20.0 log r

---------------------------------------------------------------------

The orbital elements are published on M.P.E.C. 2017-N71.
The charts are made with StellaNavigator Ver.10 (AstroArts).
The magnitudes graphs are made with Comet for Windows.

---------------------------------------------------------------------

Copyright(C) Seiichi Yoshida (comet@aerith.net). All rights reserved.